Lapse_Rate
7.3 7.4 7.6 8.0 7.5 8.4 9.2 9.6 9.5 9.4 8.9 8.8 8.7 9.1 9.1 7.9 8.3 8.1 7.5 7.8 7.9 8.1 8.0 7.8 7.7 7.6 7.6 7.5 7.6 7.6 7.5 7.4 7.4 7.4 7.3 7.3 7.3 7.2 7.3 7.3 7.2 7.2 7.1 7.1 7.0 6.9 6.9 6.8 6.8
7.4 7.8 7.4 7.6 8.1 9.5 9.8 9.4 9.7 9.3 8.3 8.4 8.8 8.5 7.1 7.4 8.2 8.4 8.2 7.9 7.9 7.8 7.8 7.6 7.6 7.5 7.5 7.5 7.4 7.4 7.4 7.4 7.3 7.3 7.2 7.2 7.2 7.2 7.2 7.1 7.2 7.1 7.1 7.1 7.0 6.9 6.8 6.8 6.7
7.4 7.8 7.6 7.8 8.9 9.6 9.8 9.7 9.2 8.4 8.3 8.5 8.8 8.8 8.2 8.3 7.3 7.8 7.7 8.0 8.1 7.6 7.5 7.4 7.4 7.5 7.4 7.4 7.3 7.4 7.3 7.3 7.2 7.2 7.2 7.1 7.0 7.1 7.1 7.1 7.1 7.1 7.1 7.1 7.0 7.0 7.0 7.0 6.9
7.4 7.6 7.9 8.3 9.5 9.2 9.2 9.2 8.6 8.4 8.3 8.7 9.2 7.7 7.9 8.5 8.2 8.0 7.9 8.0 8.1 7.9 7.4 7.3 7.3 7.3 7.3 7.3 7.3 7.3 7.3 7.2 7.1 7.1 7.0 7.0 7.1 7.1 7.0 7.0 6.9 6.9 6.8 6.9 7.0 7.0 6.9 7.0 6.9
7.3 7.2 7.7 9.0 9.6 8.7 8.8 8.4 8.5 8.9 8.9 8.7 9.2 8.6 8.1 8.3 8.1 7.9 7.9 7.9 7.9 8.3 7.8 7.7 7.4 7.3 7.3 7.3 7.3 7.4 7.2 6.9 6.9 6.8 6.9 6.9 6.8 6.8 6.8 6.8 6.8 6.8 6.8 6.8 6.7 6.7 6.7 6.7 6.7
6.7 7.5 8.5 9.5 9.6 8.4 8.4 8.2 8.4 8.6 9.1 8.8 8.8 7.3 6.7 8.8 8.3 7.8 7.9 7.9 7.8 8.1 7.9 7.9 7.9 7.9 7.8 7.5 7.3 7.2 7.2 7.1 7.0 6.8 6.8 6.8 6.9 6.9 6.8 6.8 6.8 6.8 6.8 6.8 6.7 6.7 6.6 6.6 6.6
6.6 7.5 8.5 9.4 9.5 8.6 8.1 7.9 8.2 8.6 9.1 9.2 8.8 8.1 8.0 7.7 8.8 7.9 7.8 8.0 7.9 8.1 8.1 8.0 7.8 7.8 7.9 8.0 7.8 7.8 7.7 7.6 7.4 7.3 7.2 7.1 7.1 7.0 6.9 6.9 6.9 7.0 7.0 7.0 7.0 6.9 6.9 6.8 6.7
6.8 7.2 8.1 9.5 9.6 8.9 7.9 7.9 8.1 8.4 9.1 9.0 8.6 8.7 7.9 7.5 8.7 8.1 8.1 8.3 8.3 8.3 8.3 8.4 8.1 7.9 7.9 7.9 8.0 8.0 7.9 7.8 7.7 7.6 7.6 7.5 7.4 7.4 7.4 7.3 7.4 7.5 7.3 7.2 7.1 7.0 6.9 6.9 6.9
6.9 7.5 8.8 9.5 9.5 8.3 7.7 8.0 7.8 8.2 8.5 8.6 8.3 8.0 7.2 7.8 8.2 8.2 8.4 8.3 8.3 8.3 8.2 8.1 8.2 7.9 7.9 8.1 8.0 7.8 7.9 7.6 7.6 7.7 7.7 7.6 7.6 7.5 7.4 7.5 7.6 7.4 7.3 7.3 7.3 7.2 7.1 6.9 6.9
7.1 7.7 7.9 8.1 8.0 8.0 7.7 7.8 7.7 8.0 8.4 8.2 8.1 8.0 7.4 7.7 7.9 8.2 8.6 8.3 8.1 7.9 8.1 8.3 8.2 8.3 7.9 7.8 8.1 7.8 7.7 7.7 7.8 7.7 7.5 7.4 7.2 7.2 7.4 7.4 7.2 7.1 7.1 7.0 7.0 7.1 7.3 7.2 7.0
7.3 7.5 7.5 7.8 7.5 7.9 7.6 7.8 7.9 8.0 8.2 9.1 9.1 7.8 7.6 7.6 7.8 7.6 7.4 7.4 8.0 7.7 8.5 8.0 8.4 8.5 8.2 8.1 7.9 7.7 7.7 7.8 7.4 7.4 7.5 7.5 7.3 7.3 7.2 7.1 7.2 7.2 7.0 7.1 7.1 7.0 7.0 7.0 7.1
7.1 7.4 7.4 7.6 7.5 7.6 7.5 7.6 8.0 7.9 8.1 8.2 8.3 8.0 7.9 7.5 7.4 7.8 8.2 6.6 3.8 6.8 7.3 8.2 8.2 8.0 8.0 8.1 8.1 7.9 7.6 7.6 7.5 7.5 7.4 7.2 7.2 7.2 7.1 7.1 7.1 6.9 7.1 7.0 6.9 7.1 7.0 6.9 7.1
7.4 7.4 7.6 7.4 7.3 7.2 7.3 7.6 7.8 7.6 7.7 8.0 7.8 7.8 8.2 8.4 7.6 8.1 7.6 7.1 4.1 6.6 8.5 8.3 8.4 8.1 7.9 7.8 7.9 8.0 7.8 7.7 7.7 7.4 7.5 7.3 7.1 7.0 7.1 7.1 6.9 6.9 6.7 6.8 7.0 6.7 6.6 6.8 6.8
7.3 7.3 7.3 7.5 7.6 7.5 7.6 7.7 7.8 7.7 7.8 7.9 7.9 7.8 7.7 7.9 7.7 7.8 7.7 7.4 7.9 7.8 8.1 8.1 8.1 7.8 7.7 7.9 7.9 7.7 7.4 7.3 7.7 7.7 7.5 7.3 7.3 7.1 7.1 7.1 6.9 7.0 6.9 6.7 6.6 6.5 6.4 6.6 6.6
7.1 7.1 7.4 7.8 8.0 7.9 7.9 7.8 8.0 7.9 7.9 7.9 7.9 7.7 7.7 7.5 7.4 7.8 7.8 7.7 7.8 8.0 8.0 8.1 8.2 7.7 7.5 7.5 7.7 7.5 7.4 7.2 7.5 7.8 7.6 7.5 7.3 7.2 7.0 7.0 7.1 7.1 6.9 6.8 6.8 6.6 6.5 6.5 6.5
7.1 7.5 7.9 8.4 8.5 7.9 8.1 8.3 8.7 8.2 7.7 7.7 7.7 8.1 8.0 8.1 7.9 7.9 8.1 7.8 7.8 8.2 8.1 7.9 7.6 7.4 7.2 7.1 6.9 7.0 6.9 6.8 6.9 7.0 7.1 7.4 7.5 7.5 7.5 7.3 7.1 7.1 7.0 6.9 6.7 6.7 6.9 6.9 6.9
8.1 8.6 9.0 9.0 8.7 8.9 8.0 8.5 8.9 8.5 8.4 8.0 7.8 7.9 8.0 8.1 8.2 8.1 7.9 7.9 8.0 7.9 7.8 8.1 8.2 7.7 7.2 6.9 6.5 6.6 6.8 6.9 6.8 6.8 7.1 7.1 7.2 7.1 6.9 6.9 7.0 6.7 6.6 6.6 6.6 6.6 6.6 6.7 6.8
8.1 8.3 8.6 8.7 9.1 8.8 8.9 8.4 8.7 9.0 8.7 8.1 8.0 8.1 8.0 8.0 7.9 7.8 7.8 7.8 7.9 7.8 7.8 7.7 8.0 8.0 7.6 7.0 6.8 6.7 6.7 6.7 6.6 6.5 6.3 6.4 6.5 6.5 6.0 6.2 6.4 6.3 6.3 6.3 6.5 6.4 6.4 6.3 6.5
7.5 7.8 8.3 8.5 8.6 9.0 9.0 8.4 8.9 9.0 8.6 8.5 7.9 7.7 8.0 8.0 7.9 8.1 8.1 8.1 8.2 8.3 8.1 8.0 7.7 7.4 7.5 7.1 7.0 6.8 6.8 6.8 6.7 6.8 6.1 5.2 5.5 5.6 5.9 5.5 5.5 5.3 5.4 5.9 6.0 6.2 6.0 5.9 5.9
7.6 7.7 7.9 8.2 8.7 8.5 8.4 8.6 8.9 9.3 8.7 8.4 8.2 7.9 7.8 8.1 8.1 8.2 8.2 8.2 8.0 7.9 7.9 7.8 7.5 7.4 7.3 7.1 6.8 6.5 6.4 6.4 6.5 6.6 6.4 6.1 6.3 6.1 5.6 5.5 5.0 4.7 4.7 4.7 5.1 5.3 5.3 5.6 6.0
7.9 8.1 8.1 8.1 8.4 8.6 8.7 8.9 8.8 8.6 7.5 7.6 7.8 7.5 7.9 8.3 8.3 8.3 8.2 8.1 7.9 7.7 7.5 7.3 7.3 7.1 6.9 6.6 6.2 5.9 5.8 5.8 5.9 5.9 5.9 5.8 5.5 5.3 5.3 5.3 5.2 5.4 5.4 5.2 5.5 5.3 5.5 5.4 5.0
8.4 8.3 8.5 8.6 8.5 8.7 8.9 9.2 9.1 8.4 7.8 7.9 7.4 7.3 7.3 8.0 8.0 8.1 8.0 7.9 7.8 7.6 7.5 7.2 7.0 6.8 6.7 6.5 6.0 5.4 5.0 5.1 5.2 5.3 5.4 5.4 4.9 4.9 5.0 5.2 5.3 5.1 5.0 5.0 4.7 4.6 4.7 4.3 4.7
8.1 8.1 8.1 8.3 8.3 8.4 8.5 8.9 9.5 8.2 8.0 7.2 7.3 7.1 7.0 7.1 7.8 7.5 7.3 7.3 7.2 7.3 7.2 7.1 6.7 6.6 6.4 6.3 5.8 5.0 4.7 4.6 4.8 5.0 4.9 4.7 4.3 4.4 4.8 5.1 5.2 4.8 4.5 4.4 4.4 4.6 4.6 4.5 4.5
8.0 7.9 8.0 8.2 8.4 8.3 8.6 8.3 8.5 7.8 7.7 7.2 7.0 7.2 6.8 6.4 6.8 7.1 6.8 6.8 6.9 6.7 6.9 6.9 6.5 6.2 5.8 5.8 5.4 4.8 4.5 4.6 4.7 4.7 4.5 4.3 4.2 4.3 4.4 4.5 4.8 4.8 4.6 4.6 4.3 4.2 4.5 5.0 5.2
7.7 7.8 8.1 8.5 9.1 8.8 8.4 8.6 6.2 6.7 6.8 7.2 7.3 7.1 6.6 6.4 6.0 5.9 5.9 6.8 6.9 6.7 6.3 6.4 6.2 5.9 5.4 5.4 5.0 4.8 4.6 4.8 4.8 4.6 4.3 4.6 4.3 4.5 4.8 4.8 4.7 4.8 5.0 4.8 4.7 4.8 5.0 5.1 5.3
8.0 8.2 8.8 8.2 8.7 8.8 9.1 8.5 5.7 6.3 6.8 6.8 7.1 6.7 6.3 6.0 5.8 5.7 6.2 6.4 6.6 6.3 6.0 5.6 5.4 6.0 5.1 5.3 5.6 5.0 4.8 4.7 4.7 4.7 4.7 4.5 4.6 5.0 5.2 5.3 5.2 5.1 5.1 5.0 5.0 5.1 5.2 5.1 5.1
7.9 8.3 7.8 8.2 8.3 8.2 8.8 7.5 7.0 6.4 6.6 6.5 6.8 6.3 6.1 6.1 5.9 6.6 6.9 7.1 6.8 6.4 6.2 5.8 5.3 6.0 5.1 4.7 5.5 5.3 4.9 4.8 5.0 4.9 4.8 4.7 4.6 4.9 5.1 5.0 5.0 5.0 4.9 5.1 5.1 5.1 5.1 5.1 5.1
7.6 7.6 8.0 8.3 7.5 7.5 8.8 8.4 6.8 6.4 6.6 6.6 6.4 6.3 5.9 6.4 7.1 7.1 7.1 6.9 6.5 6.3 6.4 6.4 5.9 5.7 5.2 4.8 5.0 5.0 4.7 4.8 4.6 4.5 4.4 4.6 4.7 5.1 5.1 5.0 5.0 4.9 4.9 4.7 4.8 5.3 5.4 5.2 5.3
7.4 7.2 7.8 7.5 7.5 7.5 7.4 8.0 7.8 7.4 7.0 6.6 6.5 6.2 5.9 6.2 6.3 6.5 6.5 6.4 6.5 6.4 6.4 6.2 6.0 5.8 5.4 5.0 4.6 4.6 4.8 4.6 4.5 4.2 4.5 4.7 4.9 5.1 5.1 5.1 5.0 5.0 4.9 4.7 4.5 4.2 4.6 5.3 5.2
7.3 7.5 7.6 6.9 7.3 7.1 6.9 6.7 7.3 7.2 7.1 6.7 6.3 6.4 6.1 6.3 6.3 6.2 6.2 6.2 6.3 6.3 6.1 5.9 5.7 5.6 5.4 5.2 4.8 4.8 4.7 4.7 4.7 4.6 4.7 4.6 4.6 4.4 4.2 4.3 4.3 4.3 4.1 4.3 4.5 4.5 4.3 4.2 4.5
Wind_Speed
17 18 10 9 6 7 16 5 9 7 3 8 14 14 18 19 9 4 8 20 20 18 19 18 20 20 16 15 16 15 13 12 12 12 11 11 11 11 11 10 10 10 9 8 8 7 7 7 7
11 17 8 6 8 9 4 8 8 13 12 6 5 21 17 20 17 14 11 17 19 17 17 17 19 20 18 16 14 15 14 13 13 12 12 11 11 10 9 8 8 7 7 6 5 5 6 7 7
11 15 7 7 12 8 2 7 13 11 3 5 2 13 16 13 11 9 12 17 19 14 19 17 18 19 17 16 16 15 15 15 15 14 13 11 10 9 8 8 6 5 5 5 4 5 5 5 5
6 6 7 9 13 10 12 9 10 3 5 6 8 11 13 9 6 13 14 16 16 15 22 17 17 17 16 15 14 14 14 15 14 12 11 10 9 9 9 8 5 3 3 3 3 4 4 5 5
7 7 12 17 2 8 2 7 1 5 8 7 16 13 11 9 14 15 12 15 14 17 20 18 16 16 14 12 13 14 14 14 15 14 13 12 11 10 9 8 6 4 4 3 3 2 3 5 6
7 10 12 14 9 7 5 7 1 4 2 1 6 12 11 12 13 12 11 13 19 16 17 17 15 17 17 14 11 8 8 9 9 9 9 9 10 10 10 9 8 7 6 5 5 4 4 5 6
12 12 17 19 12 7 7 7 4 7 9 4 4 10 6 2 9 12 12 10 17 15 14 15 14 13 12 12 11 10 8 6 6 6 6 7 7 6 8 9 9 8 7 6 7 6 6 7 8
5 11 17 14 2 6 6 3 2 9 6 3 8 4 6 25 12 14 13 11 11 12 11 9 13 13 11 9 8 7 6 5 6 6 6 7 7 8 10 11 11 11 10 9 9 9 10 10 10
12 10 12 8 2 11 7 7 6 6 8 0 8 12 9 15 15 13 14 12 10 9 12 11 11 14 16 14 10 8 5 3 2 3 4 5 8 13 13 14 12 16 12 11 11 13 13 14 13
5 10 11 10 12 10 5 3 4 9 10 3 5 6 13 11 11 14 13 13 13 12 11 9 7 7 12 12 13 11 10 3 3 4 5 10 14 10 7 7 11 10 10 11 12 13 14 13 12
6 10 8 10 6 7 7 9 11 6 12 6 7 12 6 8 9 9 15 18 16 13 8 12 10 12 10 10 9 10 13 11 11 14 13 12 12 12 9 4 5 8 13 9 14 13 13 13 14
6 14 7 10 1 4 10 12 12 7 12 9 5 8 5 7 10 10 3 37 32 12 8 12 13 9 15 13 11 12 11 11 11 12 15 12 10 10 11 10 10 9 11 7 8 6 10 11 14
11 11 10 8 8 9 12 14 14 12 11 10 3 2 5 11 9 6 25 27 12 1 13 13 10 7 10 11 12 12 10 10 11 12 14 15 11 7 10 9 10 7 13 12 10 9 10 7 7
13 10 14 14 13 13 14 14 13 13 11 8 6 5 7 9 4 12 16 19 16 13 14 11 10 10 14 8 11 8 10 9 12 13 13 15 12 10 8 7 8 10 15 14 13 8 5 5 8
8 14 14 16 15 7 6 14 15 8 3 3 6 1 2 13 15 12 11 9 14 13 13 12 12 13 10 7 10 9 9 10 6 10 15 14 15 14 12 6 5 11 15 18 13 11 10 5 6
17 16 14 7 9 7 2 14 12 10 8 3 5 5 7 8 13 12 12 11 11 11 9 7 9 10 10 8 8 10 7 8 10 14 14 13 15 15 12 7 6 14 13 12 6 5 5 5 5
16 14 13 7 11 5 9 12 10 13 6 9 9 7 6 9 10 9 8 8 10 10 9 8 6 5 7 7 8 8 12 11 13 15 13 15 15 15 12 8 10 12 8 5 5 5 6 7 7
13 13 12 10 5 6 11 11 11 13 10 5 13 12 9 7 8 7 7 9 9 8 7 6 5 4 7 4 6 5 6 9 12 10 10 11 11 13 10 10 11 13 6 6 6 6 5 5 6
12 11 12 14 15 16 6 13 16 8 9 8 5 13 10 9 10 6 6 6 8 7 7 6 5 3 4 1 3 3 4 4 3 6 7 7 8 6 4 6 5 6 4 5 7 6 9 7 7
10 12 14 14 16 3 9 15 18 9 8 8 9 8 12 12 10 9 7 6 5 6 7 6 5 4 4 4 3 3 3 2 2 5 5 4 7 9 8 8 4 5 4 4 5 6 4 3 6
13 13 12 13 17 15 13 18 19 9 5 8 8 11 12 11 10 8 8 7 6 6 6 6 6 5 6 5 4 3 2 2 3 3 2 6 3 5 6 6 5 7 5 4 0 4 5 4 4
15 12 16 12 12 13 15 13 3 16 13 11 7 9 9 8 8 9 8 8 8 7 7 5 7 6 4 6 5 6 4 3 3 3 4 6 7 6 3 4 4 5 6 5 3 4 2 4 5
9 14 12 11 13 13 17 11 9 18 11 7 8 9 9 8 8 5 3 5 9 8 7 5 7 6 6 4 4 4 4 2 2 2 6 3 1 1 4 6 3 5 5 4 5 5 6 4 5
11 13 11 14 13 11 12 6 12 8 10 10 5 5 10 7 9 7 6 4 2 7 9 7 7 7 6 4 2 4 3 3 3 2 3 3 1 1 3 5 4 5 5 4 3 4 5 6 6
13 10 7 7 6 11 5 6 7 16 7 11 12 11 9 5 4 1 5 5 2 4 10 9 7 6 7 5 4 3 2 1 4 3 4 3 2 2 3 5 4 3 6 6 6 5 5 6 6
7 10 6 6 9 12 8 5 2 7 18 14 15 9 6 8 8 10 9 8 7 3 4 9 8 5 8 8 6 3 1 3 3 5 5 3 2 3 5 5 7 8 10 8 7 4 4 5 5
4 2 9 7 8 8 10 9 9 9 8 2 7 2 8 10 11 13 14 13 10 9 8 8 8 4 8 8 5 2 2 4 5 7 5 3 2 4 5 7 6 8 9 8 6 6 7 6 7
4 6 5 3 3 4 6 6 3 9 9 3 2 2 5 11 12 12 11 12 12 10 8 8 7 2 4 6 5 2 5 7 7 10 10 5 4 5 6 6 6 7 7 7 8 8 8 8 7
1 3 1 4 4 1 4 4 11 5 10 11 9 8 10 10 11 10 11 11 13 12 14 13 10 8 7 5 4 6 7 8 9 8 6 5 6 6 7 7 7 8 9 8 8 8 10 11 11
6 7 5 3 3 3 1 5 1 4 6 10 8 7 9 9 9 9 10 11 12 12 14 16 15 13 11 9 8 7 7 8 10 11 14 13 13 12 12 12 12 13 13 12 11 11 11 12 13
Wind_Direction
291 272 253 265 246 234 252 86 46 91 142 32 45 27 52 57 84 121 99 106 117 125 135 125 115 114 118 124 135 138 137 136 137 137 135 136 136 136 133 125 115 114 120 121 110 99 84 80 86
297 295 254 277 252 276 64 68 90 65 64 48 93 62 308 92 93 110 116 120 125 131 142 130 123 120 126 132 140 145 143 143 146 147 149 151 151 147 143 140 130 132 124 113 111 113 119 125 124
270 275 282 236 231 257 65 88 70 74 85 175 206 139 41 89 79 92 125 127 127 137 137 127 124 123 127 136 143 150 154 155 158 157 159 160 157 158 156 159 153 147 133 130 133 132 136 138 145
268 235 248 250 264 62 10 51 54 160 141 270 21 51 328 20 92 117 134 132 127 147 113 123 126 125 128 136 143 152 158 160 160 161 160 164 166 168 170 174 169 157 154 163 161 152 160 163 167
246 270 254 260 227 65 15 21 357 264 168 208 111 161 192 106 108 122 136 131 128 105 121 128 130 127 131 136 147 158 163 163 165 168 172 175 176 179 183 185 184 188 200 206 192 195 199 199 194
276 237 268 266 120 92 46 346 235 291 283 320 48 135 150 120 126 129 139 130 112 119 125 135 138 139 141 142 144 149 156 160 166 173 182 186 188 191 191 191 196 202 206 210 212 222 222 229 233
265 288 281 296 111 133 73 325 279 289 238 256 165 111 347 294 137 132 127 121 112 120 124 133 142 137 139 141 143 144 147 155 169 180 189 199 205 204 206 208 211 213 213 216 216 227 237 237 243
294 297 281 291 103 99 100 233 53 280 332 45 353 115 148 246 157 131 126 109 103 124 126 141 139 147 143 132 125 129 137 158 175 190 203 209 214 214 215 216 214 213 214 214 219 221 227 235 238
277 272 280 327 282 80 90 303 114 317 310 358 31 77 156 147 156 138 131 138 138 145 145 156 157 163 159 145 142 134 129 148 183 219 231 234 239 219 228 218 228 214 212 217 218 221 224 230 238
278 288 360 8 24 29 28 282 352 310 245 172 216 116 132 157 172 150 150 161 160 149 155 155 110 80 122 131 151 169 165 144 75 38 173 233 239 268 244 198 193 196 219 226 236 237 234 235 241
284 286 355 327 31 356 318 302 286 283 283 4 220 172 166 165 204 196 188 175 157 106 71 59 59 44 57 66 65 62 54 66 49 31 21 16 9 10 330 291 207 231 220 237 230 234 232 236 232
293 290 301 300 64 282 274 269 288 306 299 343 24 32 350 208 235 225 307 69 18 15 99 72 60 54 47 60 49 48 47 57 48 39 19 23 26 16 24 9 353 4 3 291 281 252 269 263 270
268 278 300 301 290 259 263 266 264 262 270 290 270 150 269 289 243 17 99 102 115 155 93 78 77 63 64 61 54 50 51 55 59 50 36 31 24 8 4 15 3 17 11 3 354 351 351 328 301
309 309 292 289 279 268 255 255 249 254 256 259 279 293 201 259 321 54 75 117 124 106 98 102 93 85 82 79 82 78 72 69 70 57 44 32 39 10 359 17 332 3 11 343 331 317 314 308 310
290 283 278 266 242 258 340 264 247 227 57 261 270 204 40 44 45 40 56 68 96 101 101 112 123 113 104 114 123 131 137 129 109 85 50 44 32 18 352 347 347 27 355 326 333 332 324 323 316
278 258 271 294 148 165 215 297 170 137 180 119 100 107 91 77 68 55 38 46 69 91 92 75 93 110 134 146 164 137 137 106 87 72 64 49 42 30 1 352 18 10 339 326 337 325 326 324 324
257 248 277 188 178 222 192 300 152 156 192 171 142 128 131 106 83 71 72 58 59 63 74 70 66 74 94 95 90 78 78 60 58 58 47 40 37 35 17 2 8 352 330 335 339 357 348 330 324
341 343 333 334 134 179 265 266 274 202 157 213 162 142 143 149 125 117 116 98 92 88 90 92 87 90 91 95 92 92 92 84 80 74 65 52 47 34 24 20 5 353 352 351 356 323 321 302 294
335 312 299 294 292 296 240 276 270 272 148 173 184 140 149 137 114 122 77 105 116 122 122 102 105 109 116 116 111 70 67 72 72 97 100 99 96 67 19 41 8 355 341 333 8 341 346 337 335
311 292 286 291 283 10 295 279 283 275 183 135 151 122 120 113 140 147 147 133 138 144 138 134 141 96 86 89 97 104 121 164 174 152 123 55 62 38 16 27 356 343 330 346 13 334 322 319 336
278 281 284 276 297 290 267 261 245 36 42 59 44 113 124 140 142 146 156 163 166 158 157 167 144 148 92 103 111 119 127 117 50 20 17 357 27 64 18 346 339 327 323 326 202 293 290 308 321
276 281 277 259 266 274 285 292 263 181 203 128 94 91 104 104 121 140 160 165 177 173 156 169 134 108 105 77 73 67 62 55 37 3 353 313 354 360 219 284 320 295 307 309 339 296 301 309 297
297 306 298 296 278 289 279 272 332 142 130 119 123 109 98 80 54 53 121 166 172 160 148 176 127 129 101 82 87 83 82 69 15 274 251 270 271 351 351 329 284 294 305 324 317 328 342 304 289
305 288 276 265 256 257 296 22 315 146 159 151 109 163 95 67 49 27 42 64 160 152 153 153 147 136 151 112 91 101 135 190 236 314 287 291 300 285 247 232 273 269 278 279 301 307 308 301 306
252 270 283 287 258 242 280 337 31 340 219 171 182 122 83 87 96 88 55 20 84 160 152 149 167 174 147 134 176 190 241 243 286 297 267 293 317 322 335 335 305 278 262 263 265 259 262 271 275
309 240 261 305 309 317 326 63 320 4 25 56 59 83 109 54 49 44 37 31 21 22 171 160 162 193 156 151 198 184 357 338 310 257 284 292 303 317 338 303 281 278 282 268 264 265 274 284 297
2 294 323 292 305 291 263 116 101 73 67 323 117 311 41 39 41 35 33 22 19 12 3 161 158 184 151 159 189 70 311 280 285 293 293 276 310 294 301 307 282 280 277 264 264 265 266 260 266
303 348 311 324 315 315 334 342 141 198 192 202 190 349 51 50 46 40 33 30 25 22 9 69 93 80 81 130 88 332 346 293 327 314 295 281 288 276 279 283 276 273 269 270 251 244 250 256 254
203 104 15 306 341 292 325 303 29 149 187 181 196 78 62 60 57 48 40 40 37 23 45 33 41 46 68 56 354 349 347 325 309 306 321 305 282 277 273 276 282 284 282 276 272 260 239 246 251
316 318 331 86 298 330 237 272 260 91 51 73 52 63 81 77 75 64 56 46 44 38 40 40 34 33 27 23 4 348 346 344 344 2 8 5 3 355 347 338 327 319 311 304 293 282 276 259 253